Location: Irma
(52.9170°N, 111.2330°W)
Time: 16:54:16
(UTC-06:00)

Cosmos 1633 Rocket - Visible Passes

Search period start: 24 September 2017 00:00
Search period end: 04 October 2017 00:00
Orbit: 606 x 625 km, 82.5° (Epoch: 24 September)

Date Brightness Start Highest point End Pass type
(mag) Time Alt. Az. Time Alt. Az. Time Alt. Az.
24 Sep 6.1 00:59:56 10° NW 01:00:03 10° NW 01:00:03 10° NW visible
24 Sep 5.5 22:01:21 10° NNE 22:02:03 12° NE 22:02:03 12° NE visible
24 Sep 5.4 23:37:43 10° N 23:39:08 20° N 23:39:08 20° N visible
25 Sep 5.3 22:16:54 10° NNE 22:18:13 16° NNE 22:18:13 16° NNE visible
25 Sep 5.7 23:54:06 10° NNW 23:55:17 18° NNW 23:55:17 18° NNW visible
26 Sep 5.2 22:32:50 10° N 22:34:23 19° NNE 22:34:23 19° NNE visible
27 Sep 5.9 00:10:37 10° NNW 00:11:27 15° NNW 00:11:27 15° NNW visible
27 Sep 5.2 22:48:56 10° N 22:50:33 21° N 22:50:33 21° N visible
28 Sep 6.1 00:27:21 10° NW 00:27:38 11° NW 00:27:38 11° NW visible
28 Sep 5.4 21:28:54 10° NNE 21:29:39 12° NE 21:29:39 12° NE visible
28 Sep 5.3 23:05:11 10° N 23:06:44 22° N 23:06:44 22° N visible
29 Sep 5.2 21:44:24 10° NNE 21:45:51 16° NNE 21:45:51 16° NNE visible
29 Sep 5.5 23:21:33 10° NNW 23:22:56 20° NNW 23:22:56 20° NNW visible
30 Sep 5.0 22:00:19 10° N 22:02:03 20° NNE 22:02:03 20° NNE visible
30 Sep 5.8 23:38:03 10° NNW 23:39:08 16° NNW 23:39:08 16° NNW visible
01 Oct 4.9 22:16:24 10° N 22:18:16 23° N 22:18:16 23° N visible
01 Oct 6.1 23:54:46 10° NW 23:55:21 13° NW 23:55:21 13° NW visible
02 Oct 5.3 20:56:27 10° NNE 20:57:24 12° NE 20:57:24 12° NE visible
02 Oct 5.0 22:32:38 10° N 22:34:29 25° N 22:34:29 25° N visible
03 Oct 5.0 21:11:54 10° NNE 21:13:38 17° NE 21:13:38 17° NE visible
03 Oct 5.2 22:49:00 10° NNW 22:50:43 23° NNW 22:50:43 23° NNW visible
